Skip Page Navigation
NASA JPL Caltech
NASA Logo - Jet Propulsion Laboratory + View the NASA Portal
+ Center for Near-Earth Object Studies
JPL Home Earth Solar System Stars & Galaxies Technology
JPL Solar System Dynamics
BODIES ORBITS EPHEMERIDES TOOLS PHYSICAL DATA DISCOVERY FAQ SITE MAP
IMPORTANT: The SSD Announcement email list is now available. Major changes are coming in the near future, including possible hostname and/or URL changes. To be notified of such changes, subscribe to this email list.

Please visit this page for more details.


JPL Small-Body Database Browser
Search: [ help ]  
35129 (1992 EZ29)
Classification: Main-belt Asteroid          SPK-ID: 2035129
Ephemeris | Orbit Diagram | Orbital Elements | Mission Design | Physical Parameters | Discovery Circumstances ]

[ show orbit diagram ]
Orbital Elements at Epoch 2459000.5 (2020-May-31.0) TDB
Reference: JPL 20 (heliocentric ecliptic J2000)
 Element Value Uncertainty (1-sigma)   Units 
e .02972399166628896 3.835e-08  
a 2.307181813963323 9.7931e-09 au
q 2.238603160952464 8.8259e-08 au
i 1.155082874311227 3.7422e-06 deg
node 62.41796562463426 0.00021662 deg
peri 137.1037712201118 0.00022647 deg
M 347.8908425645214 6.6256e-05 deg
tp 2459043.555891046483
(2020-Jul-13.05589105)
0.00023559 TDB
period 1280.032971684724
3.50
8.1498e-06
2.231e-08
d
yr
n .2812427554316695 1.7906e-09 deg/d
Q 2.375760466974183 1.0084e-08 au
  Orbit Determination Parameters
   # obs. used (total)      982  
   data-arc span      15809 days (43.28 yr)  
   first obs. used      1976-10-22  
   last obs. used      2020-02-03  
   planetary ephem.      DE431  
   SB-pert. ephem.      SB431-N16  
   condition code      0  
   norm. resid. RMS      .54257  
   source      ORB  
   producer      Otto Matic  
   solution date      2020-Feb-23 03:43:26  

Additional Information
 Earth MOID = 1.23472 au 
 Jupiter MOID = 2.57947 au 
 T_jup = 3.586 
[ show covariance matrix ]

Ephemeris | Orbit Diagram | Orbital Elements | Mission Design | Physical Parameters | Discovery Circumstances ]

Physical Parameter Table
Parameter Symbol Value Units Sigma Reference Notes
absolute magnitude H 15.6   n/a MPO358953  

35129 (1992 EZ29)          Discovered 1992-Mar-03 by UESAC at La Silla
Reference: 20020227/Numbers.arcLast Updated: 2004-04-19

Alternate Designations
 1992 EZ29 = 1976 UQ9 = 1999 FT39 
Ephemeris | Orbit Diagram | Orbital Elements | Mission Design | Physical Parameters | Discovery Circumstances ]
ABOUT SSD CREDITS/AWARDS PRIVACY/COPYRIGHT GLOSSARY LINKS
FirstGov 2020-Feb-26 17:03 UT
(server date/time)  
NASA Home Page
Site Manager:   Ryan S. Park
Webmaster  Alan B. Chamberlin